STARLINK-30524, 57965

Orbit data source: Space-Track

STARLINK-30524, 57965 is a payload satellite owned by SpaceX/Seattle (US) in LEO that was launched on Sat, 30 Sep 2023 UTC via an FALCON 9 launch vehicle from the Air Force Eastern Test Range (AFETR). Payload-class satellites include a variety of spacecraft equipped with specific instruments for various scientific and technological missions. These include communications satellites like Starlink; space stations such as the ISS; scientific satellites like the Hubble; Earth observation satellites from companies like Planet Labs, Umbra, and HawkEye 360; GPS; miniature CubeSats for education and research; and military/defense satellites.

Loading next visibility...
Identifier
57965, 2023-151B
Orbit
LEO
Country
Flag of USUS
Related business
Manufacturer
SpaceX/Seattle
Mission
Operational Commercial Communications
Bus & Motor
STARLINK V2M, Unknown motor
Mass
730 kg wet, ~700 kg dry
Launch date (UTC)
2023-09-30 (3 years ago)
Launch vehicle
FALCON 9
Launch site
Air Force Eastern Test Range (AFETR)
Object type
Payload
Rocket body
Debris
Shape & HBR
Box + 2 Pan, 17.7 m
Radar Cross Section
33.884 m², Large (>1 m²)

Expand to show TLE details & history
Last TLE update: 11 hours ago

TLE from 11 hours ago
0 STARLINK-30524
1 57965U 23151B   26192.92246303  .00000212  00000-0  17234-4 0  9999
2 57965  43.0009 354.6313 0000859 235.6104 124.4667 15.27574353154763
Epoch: 2026-07-11T22:08Z
TLE epoch observation values (Epoch: 2026-07-11T22:08:20.805Z)
Latitude
Longitude
92.71589°
Altitude
483.175 km
Speed
7.625 km/s
True Right ascension
23h 38m 31s
True Declination
0° 00' 00"
Sunlit
Object was in full shadow at epoch
Visualization orbit readout
Latitude
Unknown
Longitude
Unknown
Altitude
Unknown
Speed
Unknown
Apparent Right ascension
Unknown
Apparent Declination
Unknown
Sunlit
N/A
Visualization observer readout
Local Sidereal Time
21:16:38
Azimuth
Unknown
Elevation
Unknown
Doppler factor
Unknown
Orbital elements
Apogee altitude
485.601 km
Perigee altitude
484.421 km
Semi-major axis
6,863.148 km
Eccentricity
0.00009
Inclination
43.0009°
RAAN
354.6313°
Arg. of periapsis
235.6104°
True anomaly
124.47481°
Mean anomaly
124.4667°
Eccentric anomaly
124.47076°
Mean motion
3.81732 °/min
Orbital period
94.31 mins
BSTAR
0.000017234
Loading maneuver chart data...
Computing Atmospheric mass density...
Loading historical data...
Loading historical data...
Loading historical data...
Loading historical data...
Loading historical data...
Loading historical data...
Loading historical data...

Documentation

Showing up to 5 results
|